• In Netherlands
  • List of Countries
  • For 7 days
  • Water Temperature
  • Satellite Maps
  • Weather Map
  • Weather Widgets
  • user-avatar
    Login

    Hourly Weather Varna

    Today, 18 November, Saturday

    Time Temperature Precipitation Wind Pressure Humidity
    00:00 +11°C° 0.4 mm 4 mps 748 mmHg 94%
    01:00 +11°C° 0.4 mm 4 mps 748 mmHg 95%
    02:00 +11°C° 0.4 mm 4 mps 748 mmHg 95%
    03:00 +12°C° 0.8 mm 4 mps 747 mmHg 95%
    04:00 +12°C° 0.8 mm 4 mps 747 mmHg 95%
    05:00 +12°C° 0.8 mm 4 mps 747 mmHg 95%
    06:00 +12°C° 0.7 mm 4 mps 746 mmHg 94%
    07:00 +12°C° 0.7 mm 4 mps 746 mmHg 94%
    08:00 +12°C° 0.7 mm 4 mps 746 mmHg 94%
    09:00 +12°C° 1.1 mm 4 mps 746 mmHg 94%
    10:00 +12°C° 1.1 mm 4 mps 746 mmHg 93%
    11:00 +12°C° 1.1 mm 4 mps 746 mmHg 93%
    12:00 +12°C° 1 mm 4 mps 746 mmHg 91%
    13:00 +12°C° 1 mm 3 mps 745 mmHg 89%
    14:00 +13°C° 1 mm 3 mps 745 mmHg 87%
    15:00 +12°C° 0.2 mm 3 mps 745 mmHg 88%
    16:00 +12°C° 0.2 mm 3 mps 745 mmHg 88%
    17:00 +11°C° 0.2 mm 3 mps 744 mmHg 89%
    18:00 +11°C° 0 mm 3 mps 744 mmHg 89%
    19:00 +10°C° 0 mm 3 mps 744 mmHg 90%
    20:00 +10°C° 0 mm 3 mps 744 mmHg 91%
    21:00 +10°C° 0.1 mm 4 mps 744 mmHg 90%
    22:00 +10°C° 0.1 mm 4 mps 744 mmHg 90%
    23:00 +10°C° 0.1 mm 4 mps 744 mmHg 89%

    Tomorrow, 19 November, Sunday

    Time Temperature Precipitation Wind Pressure Humidity
    00:00 +8°C° 0.3 mm 4 mps 744 mmHg 89%
    01:00 +8°C° 0.3 mm 4 mps 744 mmHg 89%
    02:00 +8°C° 0.3 mm 4 mps 743 mmHg 89%
    03:00 +8°C° 0.3 mm 4 mps 743 mmHg 89%
    04:00 +8°C° 0.3 mm 4 mps 743 mmHg 89%
    05:00 +8°C° 0.3 mm 4 mps 743 mmHg 89%
    06:00 +8°C° 0.3 mm 4 mps 743 mmHg 89%
    07:00 +8°C° 0.3 mm 4 mps 743 mmHg 88%
    08:00 +8°C° 0.3 mm 4 mps 743 mmHg 87%
    09:00 +8°C° 0.2 mm 4 mps 743 mmHg 82%
    10:00 +9°C° 0.2 mm 5 mps 743 mmHg 77%
    11:00 +9°C° 0.2 mm 5 mps 743 mmHg 72%
    12:00 +9°C° 0.3 mm 5 mps 743 mmHg 70%
    13:00 +10°C° 0.3 mm 5 mps 742 mmHg 67%
    14:00 +11°C° 0.3 mm 4 mps 742 mmHg 64%
    15:00 +10°C° 0.1 mm 4 mps 742 mmHg 65%
    16:00 +10°C° 0.1 mm 4 mps 742 mmHg 67%
    17:00 +8°C° 0.1 mm 4 mps 742 mmHg 68%
    18:00 +8°C° 0 mm 4 mps 742 mmHg 67%
    19:00 +7°C° 0 mm 4 mps 742 mmHg 66%
    20:00 +7°C° 0 mm 4 mps 743 mmHg 65%
    21:00 +7°C° 0 mm 4 mps 743 mmHg 66%
    22:00 +6°C° 0 mm 5 mps 743 mmHg 67%
    23:00 +6°C° 0 mm 5 mps 743 mmHg 68%

    Day after tomorrow, 20 November, Monday

    Time Temperature Precipitation Wind Pressure Humidity
    00:00 +6°C° 0 mm 5 mps 743 mmHg 69%
    01:00 +6°C° 0 mm 5 mps 743 mmHg 69%
    02:00 +5°C° 0 mm 5 mps 743 mmHg 70%
    03:00 +5°C° 0 mm 5 mps 743 mmHg 70%
    04:00 +5°C° 0 mm 5 mps 743 mmHg 71%
    05:00 +5°C° 0 mm 5 mps 743 mmHg 71%
    06:00 +5°C° 0 mm 5 mps 744 mmHg 72%
    07:00 +3°C° 0 mm 5 mps 744 mmHg 72%
    08:00 +3°C° 0 mm 6 mps 744 mmHg 72%
    09:00 +4°C° 0.1 mm 6 mps 744 mmHg 70%
    10:00 +4°C° 0.1 mm 6 mps 745 mmHg 68%
    11:00 +4°C° 0.1 mm 6 mps 745 mmHg 66%
    12:00 +5°C° 0.2 mm 6 mps 745 mmHg 64%
    13:00 +5°C° 0.2 mm 6 mps 745 mmHg 61%
    14:00 +5°C° 0.2 mm 6 mps 745 mmHg 59%
    15:00 +5°C° 0 mm 6 mps 745 mmHg 60%
    16:00 +4°C° 0 mm 6 mps 745 mmHg 61%
    17:00 +4°C° 0 mm 6 mps 745 mmHg 62%
    18:00 +5°C° 0 mm 5 mps 745 mmHg 64%
    19:00 +3°C° 0 mm 5 mps 746 mmHg 67%
    20:00 +3°C° 0 mm 5 mps 746 mmHg 69%
    21:00 +3°C° 0 mm 6 mps 746 mmHg 70%
    22:00 +3°C° 0 mm 6 mps 746 mmHg 71%
    23:00 +2°C° 0 mm 6 mps 747 mmHg 71%

    21 November, Tuesday

    Time Temperature Precipitation Wind Pressure Humidity
    00:00 +2°C° 0 mm 6 mps 747 mmHg 72%
    01:00 +2°C° 0 mm 6 mps 747 mmHg 73%
    02:00 +1°C° 0 mm 6 mps 747 mmHg 73%
    03:00 +1°C° 0 mm 6 mps 747 mmHg 75%
    04:00 +1°C° 0 mm 5 mps 747 mmHg 76%
    05:00 0°C° 0 mm 5 mps 747 mmHg 77%
    06:00 0°C° 0 mm 5 mps 748 mmHg 78%
    07:00 0°C° 0 mm 5 mps 748 mmHg 78%
    08:00 0°C° 0 mm 4 mps 748 mmHg 78%
    09:00 +3°C° 0 mm 4 mps 748 mmHg 71%
    10:00 +4°C° 0 mm 4 mps 748 mmHg 64%
    11:00 +5°C° 0 mm 4 mps 749 mmHg 57%
    12:00 +6°C° 0 mm 4 mps 748 mmHg 53%
    13:00 +7°C° 0 mm 4 mps 748 mmHg 49%
    14:00 +8°C° 0 mm 4 mps 747 mmHg 46%
    15:00 +7°C° 0 mm 4 mps 747 mmHg 49%
    16:00 +6°C° 0 mm 4 mps 747 mmHg 53%
    17:00 +7°C° 0 mm 3 mps 747 mmHg 56%
    18:00 +5°C° 0 mm 4 mps 747 mmHg 57%
    19:00 +5°C° 0 mm 4 mps 747 mmHg 58%
    20:00 +5°C° 0 mm 4 mps 747 mmHg 59%
    21:00 +5°C° 0 mm 4 mps 747 mmHg 60%
    22:00 +3°C° 0 mm 5 mps 747 mmHg 61%
    23:00 +3°C° 0 mm 5 mps 746 mmHg 62%

    22 November, Wednesday

    Time Temperature Precipitation Wind Pressure Humidity
    00:00 +3°C° 0 mm 5 mps 746 mmHg 62%
    01:00 +3°C° 0 mm 5 mps 746 mmHg 62%
    02:00 +3°C° 0 mm 5 mps 746 mmHg 62%
    03:00 +5°C° 0 mm 5 mps 746 mmHg 63%
    04:00 +5°C° 0 mm 5 mps 746 mmHg 64%
    05:00 +5°C° 0 mm 5 mps 746 mmHg 65%
    06:00 +5°C° 0 mm 5 mps 746 mmHg 66%
    07:00 +5°C° 0 mm 5 mps 747 mmHg 67%
    08:00 +5°C° 0 mm 5 mps 747 mmHg 68%
    09:00 +6°C° 0 mm 5 mps 747 mmHg 63%
    10:00 +8°C° 0 mm 5 mps 748 mmHg 58%
    11:00 +10°C° 0 mm 5 mps 748 mmHg 54%
    12:00 +12°C° 0 mm 4 mps 748 mmHg 52%
    13:00 +12°C° 0 mm 4 mps 748 mmHg 51%
    14:00 +13°C° 0 mm 3 mps 748 mmHg 50%
    15:00 +12°C° 0 mm 3 mps 748 mmHg 54%
    16:00 +12°C° 0 mm 2 mps 748 mmHg 59%
    17:00 +10°C° 0 mm 2 mps 748 mmHg 63%
    18:00 +10°C° 0 mm 2 mps 748 mmHg 66%
    19:00 +9°C° 0 mm 2 mps 748 mmHg 68%
    20:00 +9°C° 0 mm 3 mps 749 mmHg 70%
    21:00 +8°C° 0 mm 3 mps 749 mmHg 71%
    22:00 +8°C° 0 mm 3 mps 749 mmHg 72%
    23:00 +8°C° 0 mm 3 mps 749 mmHg 72%

    23 November, Thursday

    Time Temperature Precipitation Wind Pressure Humidity
    00:00 +8°C° 0 mm 3 mps 749 mmHg 72%
    01:00 +8°C° 0 mm 3 mps 749 mmHg 72%
    02:00 +8°C° 0 mm 3 mps 750 mmHg 72%
    03:00 +7°C° 0 mm 3 mps 750 mmHg 73%
    04:00 +7°C° 0 mm 3 mps 750 mmHg 73%
    05:00 +7°C° 0 mm 3 mps 750 mmHg 73%
    06:00 +7°C° 0 mm 3 mps 750 mmHg 73%
    07:00 +7°C° 0 mm 3 mps 751 mmHg 73%
    08:00 +7°C° 0 mm 2 mps 751 mmHg 73%
    09:00 +9°C° 0 mm 2 mps 751 mmHg 67%
    10:00 +12°C° 0 mm 2 mps 752 mmHg 61%
    11:00 +13°C° 0 mm 2 mps 752 mmHg 55%
    12:00 +14°C° 0 mm 1 mps 752 mmHg 53%
    13:00 +15°C° 0 mm 1 mps 752 mmHg 51%
    14:00 +15°C° 0 mm 1 mps 752 mmHg 49%
    15:00 +14°C° 0 mm 1 mps 752 mmHg 54%
    16:00 +13°C° 0 mm 1 mps 752 mmHg 59%
    17:00 +12°C° 0 mm 1 mps 752 mmHg 63%
    18:00 +11°C° 0 mm 1 mps 752 mmHg 67%
    19:00 +11°C° 0 mm 1 mps 752 mmHg 70%
    20:00 +10°C° 0 mm 1 mps 753 mmHg 73%
    21:00 +10°C° 0 mm 1 mps 753 mmHg 74%
    22:00 +10°C° 0 mm 1 mps 753 mmHg 75%
    23:00 +10°C° 0 mm 1 mps 753 mmHg 77%
    Show more